| time (UTC) | temp C | wind direction | speed KPH | gust KPH | rain 1hr cm | rain 24hr cm | rain mn cm | humidity % | barometer mb |
| 20260507065051 | 15 | 266 | 8.0 | 9.7 | 0.00 | 0.00 | 0.00 | 92 | 1017.3 |
| 20260507064549 | 15 | 261 | 6.4 | 8.0 | 0.00 | 0.00 | 0.00 | 92 | 1017.1 |
| 20260507064047 | 15 | 305 | 3.2 | 4.8 | 0.00 | 0.00 | 0.00 | 92 | 1017.0 |
| 20260507063544 | 15 | 249 | 6.4 | 8.0 | 0.00 | 0.00 | 0.00 | 92 | 1017.4 |
| 20260507063041 | 15 | 297 | 3.2 | 3.2 | 0.00 | 0.00 | 0.00 | 92 | 1017.3 |
| 20260507062538 | 15 | 276 | 4.8 | 4.8 | 0.00 | 0.00 | 0.00 | 92 | 1017.3 |
| 20260507062035 | 15 | 294 | 4.8 | 4.8 | 0.00 | 0.00 | 0.00 | 92 | 1017.3 |
| 20260507061533 | 15 | 299 | 3.2 | 3.2 | 0.00 | 0.00 | 0.00 | 92 | 1017.4 |
| 20260507061031 | 15 | 290 | 6.4 | 8.0 | 0.00 | 0.00 | 0.00 | 92 | 1017.4 |
| 20260507060528 | 15 | 284 | 4.8 | 4.8 | 0.00 | 0.00 | 0.00 | 92 | 1017.5 |
| 20260507060025 | 15 | 302 | 1.6 | 3.2 | 0.00 | 0.00 | 0.00 | 92 | 1017.3 |
| 20260507055520 | 15 | 335 | 4.8 | 8.0 | 0.00 | 0.00 | 0.00 | 92 | 1017.5 |
| 20260507055016 | 15 | 274 | 6.4 | 9.7 | 0.00 | 0.00 | 0.00 | 92 | 1017.4 |
| 20260507054513 | 15 | 275 | 8.0 | 9.7 | 0.00 | 0.00 | 0.00 | 92 | 1017.5 |
| 20260507054009 | 15 | 236 | 1.6 | 3.2 | 0.00 | 0.00 | 0.00 | 92 | 1017.3 |
| 20260507053508 | 15 | 281 | 8.0 | 9.7 | 0.00 | 0.00 | 0.00 | 92 | 1017.3 |
| 20260507053006 | 15 | 262 | 6.4 | 9.7 | 0.00 | 0.00 | 0.00 | 92 | 1017.1 |
| 20260507052504 | 15 | 235 | 4.8 | 4.8 | 0.00 | 0.00 | 0.00 | 91 | 1017.4 |
| 20260507052000 | 15 | 261 | 4.8 | 4.8 | 0.00 | 0.00 | 0.00 | 91 | 1017.4 |
| 20260507051458 | 15 | 275 | 3.2 | 4.8 | 0.00 | 0.00 | 0.00 | 91 | 1017.5 |
| 20260507050954 | 15 | 274 | 4.8 | 4.8 | 0.00 | 0.00 | 0.00 | 91 | 1017.5 |
| 20260507050451 | 15 | 289 | 4.8 | 4.8 | 0.00 | 0.00 | 0.00 | 90 | 1017.3 |
| 20260507045948 | 15 | 310 | 4.8 | 8.0 | 0.00 | 0.00 | 0.00 | 90 | 1017.4 |
| 20260507045444 | 15 | 275 | 4.8 | 8.0 | 0.00 | 0.00 | 0.00 | 89 | 1017.2 |
| 20260507044942 | 15 | 274 | 8.0 | 9.7 | 0.00 | 0.00 | 0.00 | 89 | 1017.2 |
| 20260507044438 | 15 | 243 | 3.2 | 3.2 | 0.00 | 0.00 | 0.00 | 88 | 1017.2 |
| 20260507043934 | 15 | 218 | 8.0 | 11.3 | 0.00 | 0.00 | 0.00 | 87 | 1017.3 |
| 20260507043431 | 15 | 314 | 9.7 | 14.5 | 0.00 | 0.00 | 0.00 | 86 | 1017.2 |
| 20260507042927 | 15 | 271 | 8.0 | 11.3 | 0.00 | 0.00 | 0.00 | 87 | 1017.2 |
| 20260507042424 | 15 | 286 | 4.8 | 8.0 | 0.00 | 0.00 | 0.00 | 88 | 1017.0 |
| 20260507041920 | 15 | 239 | 3.2 | 4.8 | 0.00 | 0.00 | 0.00 | 89 | 1017.1 |
| 20260507041416 | 15 | 308 | 1.6 | 1.6 | 0.00 | 0.00 | 0.00 | 89 | 1017.2 |
| 20260507040914 | 15 | 273 | 3.2 | 4.8 | 0.00 | 0.00 | 0.00 | 89 | 1017.0 |
| 20260507040410 | 16 | 230 | 6.4 | 12.9 | 0.00 | 0.00 | 0.00 | 88 | 1016.7 |
| 20260507035906 | 16 | 247 | 3.2 | 4.8 | 0.00 | 0.00 | 0.00 | 88 | 1017.0 |
| 20260507035402 | 16 | 259 | 8.0 | 11.3 | 0.00 | 0.00 | 0.00 | 88 | 1017.0 |
| 20260507034859 | 15 | 295 | 4.8 | 8.0 | 0.00 | 0.00 | 0.00 | 88 | 1016.7 |
| 20260507034356 | 16 | 255 | 8.0 | 9.7 | 0.00 | 0.00 | 0.00 | 87 | 1016.6 |
| 20260507033854 | 16 | 301 | 6.4 | 11.3 | 0.00 | 0.00 | 0.00 | 87 | 1016.7 |
| 20260507033351 | 16 | 272 | 8.0 | 11.3 | 0.00 | 0.00 | 0.00 | 86 | 1016.5 |
| 20260507032848 | 16 | 288 | 6.4 | 8.0 | 0.00 | 0.00 | 0.00 | 86 | 1016.5 |
| 20260507032345 | 16 | 250 | 8.0 | 14.5 | 0.00 | 0.00 | 0.00 | 87 | 1016.7 |
| 20260507031841 | 16 | 174 | 12.9 | 16.1 | 0.00 | 0.00 | 0.00 | 87 | 1016.5 |
| 20260507031338 | 16 | 296 | 8.0 | 11.3 | 0.00 | 0.00 | 0.00 | 87 | 1016.5 |
| 20260507030835 | 16 | 209 | 9.7 | 11.3 | 0.00 | 0.00 | 0.00 | 87 | 1016.5 |
| 20260507030332 | 16 | 294 | 14.5 | 17.7 | 0.00 | 0.00 | 0.00 | 86 | 1016.4 |
| 20260507025829 | 16 | 270 | 9.7 | 12.9 | 0.00 | 0.00 | 0.00 | 87 | 1016.3 |
| 20260507025326 | 16 | 244 | 8.0 | 12.9 | 0.00 | 0.00 | 0.00 | 88 | 1016.3 |
| 20260507024824 | 16 | 319 | 8.0 | 11.3 | 0.00 | 0.00 | 0.00 | 87 | 1016.3 |
| 20260507024321 | 16 | 307 | 9.7 | 11.3 | 0.00 | 0.00 | 0.00 | 86 | 1016.2 |
| 20260507023817 | 16 | 215 | 4.8 | 11.3 | 0.00 | 0.00 | 0.00 | 86 | 1016.2 |
| 20260507023313 | 16 | 250 | 6.4 | 11.3 | 0.00 | 0.00 | 0.00 | 85 | 1016.2 |
| 20260507022810 | 16 | 287 | 9.7 | 11.3 | 0.00 | 0.00 | 0.00 | 85 | 1016.0 |
| 20260507022307 | 16 | 276 | 6.4 | 11.3 | 0.00 | 0.00 | 0.00 | 83 | 1016.1 |
| 20260507021803 | 16 | 245 | 9.7 | 12.9 | 0.00 | 0.00 | 0.00 | 83 | 1016.2 |
| 20260507021259 | 16 | 232 | 3.2 | 9.7 | 0.00 | 0.00 | 0.00 | 82 | 1015.9 |
| 20260507020757 | 17 | 232 | 11.3 | 17.7 | 0.00 | 0.00 | 0.00 | 81 | 1015.9 |
| 20260507020253 | 16 | 252 | 9.7 | 12.9 | 0.00 | 0.00 | 0.00 | 82 | 1016.0 |
| 20260507015751 | 16 | 247 | 9.7 | 11.3 | 0.00 | 0.00 | 0.00 | 83 | 1015.9 |
| 20260507015248 | 17 | 256 | 6.4 | 8.0 | 0.00 | 0.00 | 0.00 | 82 | 1015.9 |
| 20260507014745 | 17 | 81 | 9.7 | 14.5 | 0.00 | 0.00 | 0.00 | 82 | 1016.0 |
| 20260507014241 | 17 | 193 | 6.4 | 11.3 | 0.00 | 0.00 | 0.00 | 81 | 1016.1 |
| 20260507013738 | 17 | 262 | 12.9 | 17.7 | 0.00 | 0.00 | 0.00 | 81 | 1015.9 |
| 20260507013236 | 17 | 173 | 9.7 | 14.5 | 0.00 | 0.00 | 0.00 | 82 | 1016.1 |
| 20260507012732 | 17 | 248 | 12.9 | 16.1 | 0.00 | 0.00 | 0.00 | 82 | 1016.0 |
| 20260507012227 | 16 | 267 | 11.3 | 12.9 | 0.00 | 0.00 | 0.00 | 84 | 1015.9 |
| 20260507011726 | 17 | 284 | 11.3 | 14.5 | 0.00 | 0.00 | 0.00 | 82 | 1015.8 |
| 20260507011222 | 17 | 258 | 8.0 | 9.7 | 0.00 | 0.00 | 0.00 | 82 | 1015.9 |
| 20260507010721 | 17 | 293 | 14.5 | 17.7 | 0.00 | 0.00 | 0.00 | 82 | 1015.9 |
| 20260507010217 | 17 | 258 | 14.5 | 20.9 | 0.00 | 0.00 | 0.00 | 82 | 1015.9 |
| 20260507005715 | 17 | 247 | 11.3 | 12.9 | 0.00 | 0.00 | 0.00 | 82 | 1015.9 |
| 20260507005211 | 17 | 264 | 12.9 | 16.1 | 0.00 | 0.00 | 0.00 | 83 | 1015.8 |
| 20260507004708 | 17 | 340 | 3.2 | 8.0 | 0.00 | 0.00 | 0.00 | 81 | 1015.7 |
| 20260507004206 | 17 | 232 | 11.3 | 14.5 | 0.00 | 0.00 | 0.00 | 81 | 1015.9 |
| 20260507003702 | 17 | 267 | 12.9 | 17.7 | 0.00 | 0.00 | 0.00 | 80 | 1015.9 |
| 20260507003157 | 17 | 266 | 16.1 | 22.5 | 0.00 | 0.00 | 0.00 | 80 | 1016.0 |
| 20260507002654 | 18 | 191 | 8.0 | 9.7 | 0.00 | 0.00 | 0.00 | 79 | 1015.8 |
| 20260507002149 | 18 | 225 | 9.7 | 20.9 | 0.00 | 0.00 | 0.00 | 79 | 1016.2 |
| 20260507001647 | 18 | 254 | 16.1 | 17.7 | 0.00 | 0.00 | 0.00 | 81 | 1016.1 |
| 20260507001144 | 18 | 277 | 11.3 | 20.9 | 0.00 | 0.00 | 0.00 | 79 | 1016.2 |
| 20260507000640 | 18 | 229 | 4.8 | 8.0 | 0.00 | 0.00 | 0.00 | 80 | 1015.8 |
| 20260507000135 | 18 | 241 | 12.9 | 16.1 | 0.00 | 0.00 | 0.00 | 79 | 1015.6 |
| 20260506235634 | 18 | 274 | 17.7 | 22.5 | 0.00 | 0.00 | 0.00 | 80 | 1016.0 |
| 20260506235133 | 18 | 227 | 12.9 | 16.1 | 0.00 | 0.00 | 0.00 | 80 | 1015.8 |
| 20260506234631 | 18 | 225 | 8.0 | 11.3 | 0.00 | 0.00 | 0.00 | 79 | 1015.9 |
| 20260506234128 | 18 | 240 | 4.8 | 8.0 | 0.00 | 0.00 | 0.00 | 79 | 1015.8 |
| 20260506233625 | 18 | 315 | 6.4 | 8.0 | 0.00 | 0.00 | 0.00 | 78 | 1016.0 |
| 20260506233122 | 18 | 267 | 3.2 | 4.8 | 0.00 | 0.00 | 0.00 | 78 | 1015.9 |
| 20260506232618 | 18 | 204 | 8.0 | 12.9 | 0.00 | 0.00 | 0.00 | 77 | 1016.0 |
| 20260506232113 | 18 | 271 | 16.1 | 20.9 | 0.00 | 0.00 | 0.00 | 78 | 1016.1 |
| 20260506231611 | 18 | 263 | 11.3 | 12.9 | 0.00 | 0.00 | 0.00 | 77 | 1016.2 |
| 20260506231109 | 18 | 303 | 6.4 | 9.7 | 0.00 | 0.00 | 0.00 | 78 | 1016.3 |
| 20260506230605 | 18 | 234 | 12.9 | 14.5 | 0.00 | 0.00 | 0.00 | 76 | 1016.0 |
| 20260506225559 | 18 | 333 | 6.4 | 9.7 | 0.00 | 0.00 | 0.00 | 76 | 1016.1 |
| 20260506225055 | 18 | 306 | 14.5 | 20.9 | 0.00 | 0.00 | 0.00 | 77 | 1016.2 |
| 20260506224553 | 18 | 262 | 12.9 | 16.1 | 0.00 | 0.00 | 0.00 | 77 | 1016.2 |
| 20260506224049 | 18 | 254 | 17.7 | 22.5 | 0.00 | 0.00 | 0.00 | 77 | 1016.4 |
| 20260506223545 | 18 | 239 | 11.3 | 14.5 | 0.00 | 0.00 | 0.00 | 75 | 1016.4 |
| 20260506223042 | 18 | 264 | 9.7 | 11.3 | 0.00 | 0.00 | 0.00 | 77 | 1016.3 |
| 20260506222538 | 18 | 238 | 11.3 | 12.9 | 0.00 | 0.00 | 0.00 | 77 | 1016.7 |
| 20260506222035 | 18 | 301 | 8.0 | 14.5 | 0.00 | 0.00 | 0.00 | 76 | 1016.4 |
| 20260506221533 | 18 | 299 | 4.8 | 11.3 | 0.00 | 0.00 | 0.00 | 77 | 1016.5 |
| 20260506221030 | 18 | 265 | 14.5 | 20.9 | 0.00 | 0.00 | 0.00 | 78 | 1016.7 |
| 20260506220526 | 18 | 285 | 11.3 | 16.1 | 0.00 | 0.00 | 0.00 | 79 | 1016.7 |
| 20260506220022 | 18 | 289 | 11.3 | 14.5 | 0.00 | 0.00 | 0.00 | 76 | 1016.8 |
| 20260506215519 | 18 | 258 | 6.4 | 9.7 | 0.00 | 0.00 | 0.00 | 77 | 1017.0 |
| 20260506215014 | 18 | 241 | 9.7 | 17.7 | 0.00 | 0.00 | 0.00 | 78 | 1017.0 |
| 20260506214512 | 18 | 215 | 8.0 | 11.3 | 0.00 | 0.00 | 0.00 | 78 | 1016.9 |
| 20260506214009 | 18 | 250 | 8.0 | 9.7 | 0.00 | 0.00 | 0.00 | 78 | 1017.0 |
| 20260506213507 | 18 | 265 | 9.7 | 14.5 | 0.00 | 0.00 | 0.00 | 78 | 1017.0 |
| 20260506213003 | 18 | 261 | 14.5 | 16.1 | 0.00 | 0.00 | 0.00 | 78 | 1017.0 |
| 20260506212500 | 18 | 253 | 12.9 | 16.1 | 0.00 | 0.00 | 0.00 | 77 | 1016.9 |
| 20260506211949 | 18 | 253 | 16.1 | 20.9 | 0.00 | 0.00 | 0.00 | 76 | 1017.0 |
| 20260506211445 | 18 | 268 | 11.3 | 12.9 | 0.00 | 0.00 | 0.00 | 77 | 1017.1 |
| 20260506210943 | 18 | 124 | 4.8 | 8.0 | 0.00 | 0.00 | 0.00 | 77 | 1017.3 |
| 20260506210439 | 18 | 284 | 12.9 | 16.1 | 0.00 | 0.00 | 0.00 | 77 | 1017.3 |
| 20260506205937 | 18 | 332 | 11.3 | 14.5 | 0.00 | 0.00 | 0.00 | 78 | 1017.4 |
| 20260506205433 | 18 | 272 | 8.0 | 9.7 | 0.00 | 0.00 | 0.00 | 79 | 1017.3 |
| 20260506204928 | 18 | 254 | 14.5 | 20.9 | 0.00 | 0.00 | 0.00 | 76 | 1017.4 |
| 20260506204427 | 18 | 293 | 9.7 | 11.3 | 0.00 | 0.00 | 0.00 | 76 | 1017.5 |
| 20260506203924 | 18 | 316 | 4.8 | 8.0 | 0.00 | 0.00 | 0.00 | 80 | 1017.6 |
| 20260506203421 | 18 | 268 | 14.5 | 16.1 | 0.00 | 0.00 | 0.00 | 79 | 1017.6 |
| 20260506202918 | 18 | 302 | 14.5 | 16.1 | 0.00 | 0.00 | 0.00 | 79 | 1017.7 |
| 20260506202415 | 18 | 58 | 6.4 | 11.3 | 0.00 | 0.00 | 0.00 | 79 | 1017.4 |
| 20260506201911 | 17 | 328 | 9.7 | 12.9 | 0.00 | 0.00 | 0.00 | 80 | 1017.7 |
| 20260506201409 | 17 | 247 | 12.9 | 17.7 | 0.00 | 0.00 | 0.00 | 80 | 1017.7 |
| 20260506200905 | 17 | 321 | 12.9 | 16.1 | 0.00 | 0.00 | 0.00 | 80 | 1017.6 |
| 20260506200401 | 18 | 262 | 4.8 | 9.7 | 0.00 | 0.00 | 0.00 | 79 | 1017.7 |
| 20260506195858 | 18 | 227 | 14.5 | 14.5 | 0.00 | 0.00 | 0.00 | 79 | 1017.8 |
| 20260506195355 | 18 | 220 | 11.3 | 17.7 | 0.00 | 0.00 | 0.00 | 77 | 1017.6 |
| 20260506194852 | 17 | 231 | 11.3 | 14.5 | 0.00 | 0.00 | 0.00 | 79 | 1017.8 |
| 20260506194349 | 18 | 218 | 8.0 | 11.3 | 0.00 | 0.00 | 0.00 | 79 | 1017.9 |
| 20260506193846 | 18 | 261 | 6.4 | 9.7 | 0.00 | 0.00 | 0.00 | 78 | 1018.0 |
| 20260506193342 | 18 | 271 | 9.7 | 12.9 | 0.00 | 0.00 | 0.00 | 77 | 1017.9 |
| 20260506192839 | 18 | 226 | 8.0 | 11.3 | 0.00 | 0.00 | 0.00 | 77 | 1017.7 |
| 20260506192336 | 18 | 291 | 11.3 | 12.9 | 0.00 | 0.00 | 0.00 | 78 | 1018.0 |
| 20260506191833 | 18 | 247 | 11.3 | 14.5 | 0.00 | 0.00 | 0.00 | 77 | 1018.1 |
| 20260506191329 | 18 | 212 | 4.8 | 12.9 | 0.00 | 0.00 | 0.00 | 78 | 1018.3 |
| 20260506190827 | 18 | 268 | 4.8 | 4.8 | 0.00 | 0.00 | 0.00 | 76 | 1018.2 |
| 20260506190323 | 18 | 287 | 9.7 | 12.9 | 0.00 | 0.00 | 0.00 | 77 | 1018.1 |
| 20260506185820 | 17 | 226 | 9.7 | 12.9 | 0.00 | 0.00 | 0.00 | 78 | 1018.1 |
| 20260506185317 | 18 | 228 | 8.0 | 11.3 | 0.00 | 0.00 | 0.00 | 77 | 1018.3 |
| 20260506184813 | 17 | 236 | 12.9 | 17.7 | 0.00 | 0.00 | 0.00 | 78 | 1018.1 |
| 20260506184311 | 17 | 224 | 11.3 | 17.7 | 0.00 | 0.00 | 0.00 | 79 | 1018.3 |
| 20260506183808 | 17 | 224 | 9.7 | 12.9 | 0.00 | 0.00 | 0.00 | 78 | 1018.2 |
| 20260506183303 | 17 | 266 | 8.0 | 11.3 | 0.00 | 0.00 | 0.00 | 78 | 1018.5 |
| 20260506182801 | 18 | 288 | 4.8 | 4.8 | 0.00 | 0.00 | 0.00 | 78 | 1018.6 |
| 20260506182258 | 17 | 234 | 12.9 | 14.5 | 0.00 | 0.00 | 0.00 | 79 | 1018.4 |
| 20260506181755 | 18 | 217 | 9.7 | 12.9 | 0.00 | 0.00 | 0.00 | 76 | 1018.3 |
| 20260506181253 | 18 | 294 | 12.9 | 14.5 | 0.00 | 0.00 | 0.00 | 73 | 1018.5 |
| 20260506180750 | 17 | 226 | 6.4 | 12.9 | 0.00 | 0.00 | 0.00 | 76 | 1018.4 |
| 20260506180246 | 17 | 298 | 11.3 | 14.5 | 0.00 | 0.00 | 0.00 | 78 | 1018.4 |
| 20260506175742 | 17 | 264 | 8.0 | 11.3 | 0.00 | 0.00 | 0.00 | 78 | 1018.6 |
| 20260506175240 | 17 | 285 | 6.4 | 8.0 | 0.00 | 0.00 | 0.00 | 79 | 1018.5 |
| 20260506174737 | 17 | 292 | 8.0 | 11.3 | 0.00 | 0.00 | 0.00 | 78 | 1018.3 |
| 20260506174234 | 17 | 319 | 6.4 | 9.7 | 0.00 | 0.00 | 0.00 | 78 | 1018.4 |
| 20260506173731 | 17 | 322 | 8.0 | 12.9 | 0.00 | 0.00 | 0.00 | 77 | 1018.4 |
| 20260506173227 | 17 | 276 | 4.8 | 8.0 | 0.00 | 0.00 | 0.00 | 78 | 1018.5 |
| 20260506172724 | 17 | 268 | 11.3 | 12.9 | 0.00 | 0.00 | 0.00 | 76 | 1018.5 |
| 20260506172221 | 17 | 233 | 8.0 | 11.3 | 0.00 | 0.00 | 0.00 | 77 | 1018.2 |
| 20260506171718 | 17 | 276 | 11.3 | 14.5 | 0.00 | 0.00 | 0.00 | 75 | 1018.4 |
| 20260506171216 | 17 | 281 | 8.0 | 11.3 | 0.00 | 0.00 | 0.00 | 76 | 1018.4 |
| 20260506170713 | 17 | 352 | 3.2 | 4.8 | 0.00 | 0.00 | 0.00 | 76 | 1018.2 |
| 20260506170210 | 17 | 236 | 6.4 | 9.7 | 0.00 | 0.00 | 0.00 | 76 | 1018.1 |
| 20260506165708 | 17 | 227 | 9.7 | 14.5 | 0.00 | 0.00 | 0.00 | 75 | 1018.3 |
| 20260506165204 | 17 | 333 | 11.3 | 12.9 | 0.00 | 0.00 | 0.00 | 76 | 1018.0 |
| 20260506164702 | 20 | 206 | 8.0 | 11.3 | 0.00 | 0.00 | 0.00 | 68 | 1017.9 |
| 20260506164159 | 20 | 40 | 0.0 | 0.0 | 0.00 | 0.00 | 0.00 | 66 | 1018.3 |
| 20260506163655 | 20 | 351 | 0.0 | 0.0 | 0.00 | 0.00 | 0.00 | 65 | 1018.2 |
| 20260506163150 | 19 | 22 | 0.0 | 0.0 | 0.00 | 0.00 | 0.00 | 66 | 1018.1 |
| 20260506162647 | 19 | 323 | 0.0 | 0.0 | 0.00 | 0.00 | 0.00 | 68 | 1018.3 |
| 20260506162144 | 20 | 310 | 4.8 | 4.8 | 0.00 | 0.00 | 0.00 | 67 | 1018.1 |
| 20260506161641 | 19 | 192 | 0.0 | 0.0 | 0.00 | 0.00 | 0.00 | 67 | 1018.4 |
| 20260506161138 | 19 | 351 | 0.0 | 0.0 | 0.00 | 0.00 | 0.00 | 66 | 1018.3 |
| 20260506160636 | 19 | 340 | 0.0 | 0.0 | 0.00 | 0.00 | 0.00 | 70 | 1018.3 |
| 20260506160132 | 19 | 234 | 0.0 | 0.0 | 0.00 | 0.00 | 0.00 | 70 | 1018.5 |
| 20260506155631 | 18 | 9 | 0.0 | 0.0 | 0.00 | 0.00 | 0.00 | 72 | 1018.3 |
| 20260506155128 | 18 | 33 | 0.0 | 0.0 | 0.00 | 0.00 | 0.00 | 73 | 1018.2 |
| 20260506153231 | 17 | 331 | 0.0 | 0.0 | 0.00 | 0.00 | 0.00 | 76 | 1018.1 |
| 20260506152727 | 17 | 311 | 0.0 | 0.0 | 0.00 | 0.00 | 0.00 | 78 | 1018.2 |
| 20260506152224 | 16 | 32 | 0.0 | 0.0 | 0.00 | 0.00 | 0.00 | 80 | 1018.4 |
| 20260506151724 | 16 | 54 | 0.0 | 1.6 | 0.00 | 0.00 | 0.00 | 79 | 1018.6 |
| 20260506151220 | 16 | 49 | 0.0 | 1.6 | 0.00 | 0.00 | 0.00 | 78 | 1018.3 |
| 20260506150716 | 16 | 28 | 0.0 | 0.0 | 0.00 | 0.00 | 0.00 | 81 | 1018.3 |
| 20260506150214 | 15 | 271 | 0.0 | 0.0 | 0.00 | 0.00 | 0.00 | 83 | 1018.5 |
| 20260506145710 | 15 | 39 | 0.0 | 0.0 | 0.00 | 0.00 | 0.00 | 82 | 1018.4 |
| 20260506145207 | 16 | 20 | 0.0 | 0.0 | 0.00 | 0.00 | 0.00 | 81 | 1018.4 |
| 20260506144705 | 15 | 14 | 0.0 | 0.0 | 0.00 | 0.00 | 0.00 | 82 | 1018.1 |
| 20260506144201 | 15 | 339 | 0.0 | 0.0 | 0.00 | 0.00 | 0.00 | 82 | 1018.2 |
| 20260506143659 | 15 | 32 | 0.0 | 0.0 | 0.00 | 0.00 | 0.00 | 83 | 1018.1 |
| 20260506143156 | 15 | 42 | 0.0 | 0.0 | 0.00 | 0.00 | 0.00 | 82 | 1018.1 |
| 20260506142655 | 15 | 31 | 0.0 | 0.0 | 0.00 | 0.00 | 0.00 | 82 | 1018.4 |
| 20260506142152 | 15 | 9 | 0.0 | 0.0 | 0.00 | 0.00 | 0.00 | 82 | 1018.2 |
| 20260506141650 | 15 | 24 | 0.0 | 0.0 | 0.00 | 0.00 | 0.00 | 83 | 1018.2 |
| 20260506141148 | 15 | 1 | 0.0 | 0.0 | 0.00 | 0.00 | 0.00 | 84 | 1018.1 |
| 20260506140645 | 14 | 350 | 0.0 | 0.0 | 0.00 | 0.00 | 0.00 | 85 | 1018.1 |
| 20260506140142 | 13 | 15 | 0.0 | 0.0 | 0.00 | 0.00 | 0.00 | 88 | 1018.0 |
| 20260506135639 | 13 | 344 | 0.0 | 0.0 | 0.00 | 0.00 | 0.00 | 89 | 1018.1 |
| 20260506135136 | 12 | 358 | 0.0 | 0.0 | 0.00 | 0.00 | 0.00 | 89 | 1017.9 |
| 20260506134632 | 12 | 37 | 0.0 | 0.0 | 0.00 | 0.00 | 0.00 | 89 | 1018.0 |
| 20260506134128 | 12 | 46 | 0.0 | 0.0 | 0.00 | 0.00 | 0.00 | 89 | 1017.9 |
| 20260506133626 | 12 | 46 | 0.0 | 0.0 | 0.00 | 0.00 | 0.00 | 89 | 1017.9 |
| 20260506133122 | 12 | 17 | 0.0 | 0.0 | 0.00 | 0.00 | 0.00 | 89 | 1017.9 |
| 20260506132620 | 12 | 28 | 0.0 | 0.0 | 0.00 | 0.00 | 0.00 | 89 | 1017.8 |
| 20260506132116 | 12 | 26 | 0.0 | 0.0 | 0.00 | 0.00 | 0.00 | 90 | 1017.8 |
| 20260506131614 | 12 | 44 | 0.0 | 0.0 | 0.00 | 0.00 | 0.00 | 90 | 1017.6 |
| 20260506131110 | 12 | 54 | 0.0 | 0.0 | 0.00 | 0.00 | 0.00 | 90 | 1017.4 |
| 20260506130607 | 12 | 41 | 0.0 | 0.0 | 0.00 | 0.00 | 0.00 | 90 | 1017.6 |
| 20260506130105 | 12 | 35 | 0.0 | 0.0 | 0.00 | 0.00 | 0.00 | 90 | 1017.6 |
| 20260506125603 | 12 | 34 | 0.0 | 0.0 | 0.00 | 0.00 | 0.00 | 90 | 1017.4 |
| 20260506125100 | 12 | 40 | 0.0 | 0.0 | 0.00 | 0.00 | 0.00 | 90 | 1017.3 |
| 20260506124558 | 12 | 44 | 0.0 | 0.0 | 0.00 | 0.00 | 0.00 | 90 | 1017.4 |
| 20260506124055 | 12 | 18 | 0.0 | 0.0 | 0.00 | 0.00 | 0.00 | 90 | 1017.1 |
| 20260506123553 | 12 | 36 | 0.0 | 0.0 | 0.00 | 0.00 | 0.00 | 90 | 1017.1 |
| 20260506123051 | 12 | 353 | 0.0 | 0.0 | 0.00 | 0.00 | 0.00 | 90 | 1017.2 |
| 20260506122547 | 12 | 36 | 0.0 | 0.0 | 0.00 | 0.00 | 0.00 | 91 | 1017.3 |
| 20260506122046 | 12 | 352 | 0.0 | 0.0 | 0.00 | 0.00 | 0.00 | 91 | 1017.2 |
| 20260506121543 | 12 | 354 | 0.0 | 0.0 | 0.00 | 0.00 | 0.00 | 91 | 1017.1 |
| 20260506121038 | 12 | 355 | 0.0 | 0.0 | 0.00 | 0.00 | 0.00 | 91 | 1017.3 |
| 20260506120537 | 12 | 17 | 0.0 | 0.0 | 0.00 | 0.00 | 0.00 | 91 | 1017.1 |
| 20260506120034 | 12 | 0 | 0.0 | 0.0 | 0.00 | 0.00 | 0.00 | 91 | 1017.2 |
| 20260506115532 | 12 | 351 | 0.0 | 0.0 | 0.00 | 0.00 | 0.00 | 91 | 1017.2 |
| 20260506115030 | 12 | 343 | 0.0 | 0.0 | 0.00 | 0.00 | 0.00 | 92 | 1017.2 |
| 20260506114527 | 12 | 337 | 0.0 | 0.0 | 0.00 | 0.00 | 0.00 | 92 | 1017.3 |
| 20260506114025 | 12 | 339 | 0.0 | 0.0 | 0.00 | 0.00 | 0.00 | 92 | 1017.1 |
| 20260506113523 | 12 | 6 | 0.0 | 0.0 | 0.00 | 0.00 | 0.00 | 93 | 1017.1 |
| 20260506113020 | 12 | 341 | 0.0 | 0.0 | 0.00 | 0.00 | 0.00 | 93 | 1016.9 |
| 20260506112516 | 12 | 333 | 0.0 | 0.0 | 0.00 | 0.00 | 0.00 | 93 | 1017.0 |
| 20260506112014 | 12 | 325 | 0.0 | 0.0 | 0.00 | 0.00 | 0.00 | 93 | 1016.9 |
| 20260506111512 | 12 | 328 | 0.0 | 0.0 | 0.00 | 0.00 | 0.00 | 92 | 1016.9 |
| 20260506111009 | 12 | 321 | 0.0 | 0.0 | 0.00 | 0.00 | 0.00 | 92 | 1017.0 |
| 20260506110507 | 12 | 327 | 0.0 | 0.0 | 0.00 | 0.00 | 0.00 | 92 | 1017.1 |
| 20260506110004 | 12 | 325 | 0.0 | 0.0 | 0.00 | 0.00 | 0.00 | 92 | 1016.8 |
| 20260506105500 | 12 | 346 | 0.0 | 0.0 | 0.00 | 0.00 | 0.00 | 92 | 1017.1 |
| 20260506104957 | 12 | 327 | 0.0 | 0.0 | 0.00 | 0.00 | 0.00 | 91 | 1017.0 |
| 20260506104455 | 13 | 340 | 0.0 | 0.0 | 0.00 | 0.00 | 0.00 | 91 | 1017.1 |
| 20260506103953 | 13 | 21 | 0.0 | 0.0 | 0.00 | 0.00 | 0.00 | 91 | 1017.0 |
| 20260506103450 | 13 | 351 | 0.0 | 0.0 | 0.00 | 0.00 | 0.00 | 91 | 1016.9 |
| 20260506102946 | 13 | 15 | 0.0 | 0.0 | 0.00 | 0.00 | 0.00 | 91 | 1017.1 |
| 20260506102445 | 13 | 32 | 0.0 | 0.0 | 0.00 | 0.00 | 0.00 | 91 | 1017.0 |
| 20260506101942 | 13 | 353 | 0.0 | 0.0 | 0.00 | 0.00 | 0.00 | 91 | 1016.9 |
| 20260506101438 | 13 | 335 | 0.0 | 0.0 | 0.00 | 0.00 | 0.00 | 90 | 1017.0 |
| 20260506100935 | 13 | 326 | 0.0 | 0.0 | 0.00 | 0.00 | 0.00 | 90 | 1016.8 |
| 20260506100434 | 13 | 336 | 0.0 | 0.0 | 0.00 | 0.00 | 0.00 | 90 | 1016.8 |
| 20260506095931 | 13 | 357 | 0.0 | 0.0 | 0.00 | 0.00 | 0.00 | 90 | 1016.9 |
| 20260506095430 | 13 | 308 | 0.0 | 0.0 | 0.00 | 0.00 | 0.00 | 90 | 1017.1 |
| 20260506094926 | 13 | 322 | 0.0 | 0.0 | 0.00 | 0.00 | 0.00 | 90 | 1017.0 |
| 20260506094424 | 13 | 326 | 0.0 | 0.0 | 0.00 | 0.00 | 0.00 | 90 | 1016.9 |
| 20260506093922 | 13 | 326 | 0.0 | 0.0 | 0.00 | 0.00 | 0.00 | 89 | 1017.0 |
| 20260506093419 | 13 | 316 | 0.0 | 0.0 | 0.00 | 0.00 | 0.00 | 89 | 1016.9 |
| 20260506092917 | 14 | 199 | 0.0 | 0.0 | 0.00 | 0.00 | 0.00 | 89 | 1017.1 |
| 20260506092415 | 14 | 271 | 0.0 | 0.0 | 0.00 | 0.00 | 0.00 | 89 | 1017.4 |
| 20260506091911 | 14 | 278 | 0.0 | 0.0 | 0.00 | 0.00 | 0.00 | 89 | 1017.2 |
| 20260506091409 | 14 | 282 | 0.0 | 0.0 | 0.00 | 0.00 | 0.00 | 89 | 1017.2 |
| 20260506090906 | 14 | 308 | 0.0 | 0.0 | 0.00 | 0.00 | 0.00 | 89 | 1017.0 |
| 20260506090404 | 14 | 321 | 0.0 | 0.0 | 0.00 | 0.00 | 0.00 | 89 | 1017.2 |
| 20260506085900 | 14 | 273 | 0.0 | 0.0 | 0.00 | 0.00 | 0.00 | 89 | 1017.3 |
| 20260506085357 | 14 | 295 | 0.0 | 0.0 | 0.00 | 0.00 | 0.00 | 89 | 1017.2 |
| 20260506084853 | 14 | 274 | 0.0 | 0.0 | 0.00 | 0.00 | 0.00 | 89 | 1017.3 |
| 20260506084349 | 14 | 248 | 1.6 | 1.6 | 0.00 | 0.00 | 0.00 | 88 | 1017.2 |
| 20260506083846 | 14 | 241 | 1.6 | 3.2 | 0.00 | 0.00 | 0.00 | 88 | 1017.6 |
| 20260506083343 | 14 | 315 | 0.0 | 0.0 | 0.00 | 0.00 | 0.00 | 88 | 1017.5 |
| 20260506082836 | 14 | 298 | 0.0 | 0.0 | 0.00 | 0.00 | 0.00 | 87 | 1017.5 |
| 20260506082332 | 14 | 315 | 0.0 | 0.0 | 0.00 | 0.00 | 0.00 | 87 | 1017.5 |
| 20260506081828 | 14 | 247 | 0.0 | 0.0 | 0.00 | 0.00 | 0.00 | 87 | 1017.4 |
| 20260506081326 | 14 | 311 | 1.6 | 3.2 | 0.00 | 0.00 | 0.00 | 87 | 1017.2 |
| 20260506080824 | 14 | 217 | 0.0 | 0.0 | 0.00 | 0.00 | 0.00 | 87 | 1017.5 |
| 20260506080320 | 13 | 241 | 0.0 | 0.0 | 0.00 | 0.00 | 0.00 | 87 | 1017.5 |
| 20260506073304 | 13 | 335 | 0.0 | 0.0 | 0.00 | 0.00 | 0.00 | 86 | 1017.5 |
| 20260506072800 | 13 | 329 | 0.0 | 0.0 | 0.00 | 0.00 | 0.00 | 86 | 1017.2 |
| 20260506072258 | 13 | 323 | 0.0 | 0.0 | 0.00 | 0.00 | 0.00 | 86 | 1017.3 |
| 20260506071755 | 13 | 327 | 0.0 | 0.0 | 0.00 | 0.00 | 0.00 | 86 | 1017.2 |
| 20260506071253 | 13 | 325 | 0.0 | 0.0 | 0.00 | 0.00 | 0.00 | 86 | 1017.2 |
| 20260506070751 | 13 | 323 | 0.0 | 0.0 | 0.00 | 0.00 | 0.00 | 86 | 1017.2 |
| 20260506070248 | 13 | 342 | 0.0 | 0.0 | 0.00 | 0.00 | 0.00 | 86 | 1017.2 |